STARLINK-11179, 60190

Orbit data source: Space-Track

STARLINK-11179, 60190 is a payload satellite owned by SpaceX/Seattle (US) in LEO that was launched on Wed, 03 Jul 2024 UTC via an FALCON 9 launch vehicle from the Air Force Eastern Test Range (AFETR). Payloads include a variety of satellites, spacecraft, and rockets equipped with specific instruments for various scientific and technological missions. These include communications satellites like Starlink; space stations such as the ISS; scientific satellites like the Hubble; Earth observation satellites from companies like Planet Labs, Umbra, and HawkEye 360; GPS; miniature CubeSats for education and research; and military/defense satellites.

Loading next visibility...
STARLINK-11179 details
Identifier
60190, 2024-124H
Orbit
LEO
Last TLE update18 hours ago
Origin
Flag of USSpaceX/Seattle (US)
ManufacturerSpaceX/Seattle
MissionOperational spacecraft
Bus & MotorSTARLINK V2M, Unknown motor
Mass730 kg wet, ~700 kg dry
Launch date (UTC)
2024-07-03 (6 months ago)
Launch vehicle
FALCON 9
Launch site
Air Force Eastern Test Range (AFETR)
Object type
Payload
Rocket body
Debris
Shape & HBRUnknown
Radar Cross SectionLarge (>1 m²)

Expand to show TLE details & history

TLE from 18 hours ago
0 STARLINK-11179
1 60190U 24124H   24355.80666213  .00018228  00000-0  15484-3 0  9996
2 60190  53.1566 189.7017 0000694  75.6433 284.4662 15.69732163 26816
Epoch: 2024-12-20T19:21Z
Definitive object data (Epoch: 2024-12-20T19:21:35.608Z)
Latitude0.00001°
Longitude169.43646°
Altitude360.461 km
Speed7.694 km/s
True Right ascension12h 38m 48s
True Declination0° 00' 00"
Sunlit
Object was in daylight at TLE epoch
Visualization TLE readout
Latitude-44.07977°
Longitude31.95377°
Altitude374.865 km
Speed7.684 km/s
Apparent Right ascension01h 50m 33s
Apparent Declination-44° 33' 43"
Sunlit
Object is in daylight
Visualization observer readout
Local Sidereal Time12:13:06
Azimuth247.506° W
Elevation-71.45°
Doppler factor1
Orbital elements
Apogee altitude360.392 km
Perigee altitude359.457 km
Semi-major axis6,738.062 km
Eccentricity0.0000694
Inclination53.1566°
RAAN189.7017°
Arg. of periapsis75.6433°
True anomaly284.4585°
Mean anomaly284.4662°
Eccentric anomaly284.46235°
Mean motion3.92411 °/min
BSTAR0.00015484
Orbital period91.74 mins
Loading maneuver chart data...
Loading historical data...
Loading historical data...
Loading historical data...
Loading historical data...
Loading historical data...
Loading historical data...
Loading historical data...

STARLINK-11179 Visibility forecast

Observer location: undefined°, undefined

Span
Click to sort rows by Start time (UTC) header in descending order
Start Az.
Max El. time (UTC)
Max El. Az.
Max El.
End time (UTC)
End Az.
5 mins2024-12-21 15:23:11.203Z205.517° SW2024-12-21 15:26:11.203Z120.895° SE31.641°2024-12-21 15:28:11.203Z68.212° E
|